TimeCDT,TemperatureF,Dew PointF,Humidity,Sea Level PressureIn,VisibilityMPH,Wind Direction,Wind SpeedMPH,Gust SpeedMPH,PrecipitationIn,Events,Conditions,WindDirDegrees,DateUTC
12:53 AM,57.0,48.0,72,30.17,10.0,Calm,Calm,-,N/A,,Clear,0,2013-05-13 05:53:00
1:53 AM,55.9,50.0,80,30.17,10.0,Calm,Calm,-,N/A,,Clear,0,2013-05-13 06:53:00
2:53 AM,54.0,48.9,83,30.16,10.0,NE,5.8,-,N/A,,Clear,50,2013-05-13 07:53:00
3:53 AM,53.1,48.0,83,30.15,10.0,NE,3.5,-,N/A,,Mostly Cloudy,50,2013-05-13 08:53:00
4:53 AM,54.0,46.9,77,30.16,10.0,NE,5.8,-,N/A,,Mostly Cloudy,50,2013-05-13 09:53:00
5:53 AM,54.0,46.9,77,30.17,10.0,ENE,4.6,-,N/A,,Overcast,60,2013-05-13 10:53:00
6:53 AM,53.1,46.9,80,30.19,10.0,ENE,4.6,-,N/A,,Partly Cloudy,60,2013-05-13 11:53:00
7:53 AM,57.0,50.0,77,30.20,10.0,East,4.6,-,N/A,,Clear,80,2013-05-13 12:53:00
8:53 AM,62.1,50.0,65,30.20,10.0,ENE,4.6,-,N/A,,Clear,70,2013-05-13 13:53:00
9:53 AM,68.0,51.1,55,30.19,10.0,ESE,4.6,-,N/A,,Clear,120,2013-05-13 14:53:00
10:53 AM,75.0,42.1,31,30.17,10.0,SSW,10.4,-,N/A,,Clear,210,2013-05-13 15:53:00
11:53 AM,78.1,45.0,31,30.14,10.0,SW,10.4,18.4,N/A,,Clear,220,2013-05-13 16:53:00
12:53 PM,81.0,46.9,30,30.12,10.0,SW,15.0,23.0,N/A,,Clear,220,2013-05-13 17:53:00
1:53 PM,82.9,48.0,29,30.09,10.0,WSW,17.3,20.7,N/A,,Clear,240,2013-05-13 18:53:00
3:53 PM,84.9,50.0,30,30.06,10.0,SW,19.6,26.5,N/A,,Clear,230,2013-05-13 20:53:00
4:53 PM,86.0,51.1,30,30.05,10.0,SW,13.8,20.7,N/A,,Clear,230,2013-05-13 21:53:00
5:53 PM,84.9,50.0,30,30.04,10.0,SSW,12.7,20.7,N/A,,Clear,210,2013-05-13 22:53:00
6:53 PM,84.2,53.6,35,30.04,10.0,SSW,10.4,-,N/A,,Clear,200,2013-05-13 23:53:00
7:53 PM,80.1,54.0,40,30.03,10.0,SSW,4.6,-,N/A,,Clear,200,2013-05-14 00:53:00
8:53 PM,77.0,54.0,45,30.04,10.0,SSW,4.6,-,N/A,,Clear,210,2013-05-14 01:53:00
9:53 PM,75.0,52.0,44,30.06,10.0,Calm,Calm,-,N/A,,Clear,0,2013-05-14 02:53:00
10:53 PM,72.0,51.1,48,30.06,10.0,Calm,Calm,-,N/A,,Clear,0,2013-05-14 03:53:00
11:53 PM,66.9,54.0,63,30.06,10.0,Calm,Calm,-,N/A,,Clear,0,2013-05-14 04:53:00